Location: Boursonne
(49.2024°N, 3.0468°E)
Time: 03:51:16
(UTC+00:00)

USA 234 - Pass Details

Date: 03 March 2021
Orbit: 1102 x 1105 km, 123.0° (Epoch: 16 April)

Event Time Altitude Azimuth Distance (km) Brightness Sun altitude
Exits shadow 19:39:57 28° 67° (ENE) 1,956 4.1 -21.2°
Maximum altitude 19:43:38 65° 140° (SE) 1,206 3.2 -21.7°
Drops below altitude 10° 19:50:07 10° 222° (SW) 2,956 5.8 -22.7°
Sets 19:52:37 0° 226° (SW) 3,911 6.5 -23.1°
